Probability
0 0 0 0 0 0 0 0 0 0 0 0 0 3 6 3 10 10 10 6 6 3 3 3 0 0 0 0 0 3 3 6 6 6 6 3 3 3 6 3 3 3 3 3
0 0 0 0 0 0 0 0 0 0 0 0 0 3 3 3 3 3 3 6 6 3 3 0 0 0 0 0 0 0 0 0 3 3 6 0 3 3 3 3 3 3 3 3
0 0 0 0 0 0 0 0 0 0 0 0 0 0 0 3 3 3 3 3 6 6 3 6 0 0 0 0 0 0 0 0 0 0 0 0 0 0 0 0 0 0 0 0
0 0 0 0 0 0 0 0 0 0 0 0 3 0 0 0 0 3 3 3 6 6 3 0 0 0 0 0 0 0 0 0 0 0 0 0 0 0 0 0 0 0 0 0
0 0 0 0 0 0 0 0 0 0 0 0 0 0 0 0 0 0 0 6 10 6 3 0 0 0 0 0 0 0 0 0 0 0 0 0 0 0 0 0 0 0 0 0
0 0 0 0 0 0 0 0 0 0 0 0 0 0 0 0 0 0 3 0 3 3 3 0 0 0 0 0 0 0 0 0 0 0 0 0 0 0 0 0 0 0 0 0
0 0 0 0 0 0 0 0 0 0 0 0 0 0 0 0 0 0 3 0 0 3 3 0 0 0 0 0 0 0 0 0 0 0 0 0 0 0 0 0 0 0 0 0
0 0 0 0 3 0 0 0 0 0 0 0 0 0 0 0 0 0 3 3 0 3 3 0 0 0 0 0 0 0 0 0 0 0 0 0 0 0 0 0 0 0 0 0
0 0 0 0 0 0 0 0 0 0 0 0 0 0 0 0 0 0 0 3 0 3 3 3 0 0 0 0 0 0 0 0 0 0 0 0 0 0 0 0 0 0 0 0
0 0 0 0 0 0 0 0 0 0 0 0 0 0 0 0 0 0 0 3 0 3 3 3 0 0 0 0 0 0 0 0 0 0 0 0 0 0 0 0 0 0 0 0
0 0 0 0 0 0 0 0 0 0 0 0 0 0 0 0 0 0 0 3 0 3 3 0 0 0 0 0 0 0 0 0 0 0 0 0 0 0 0 0 0 0 0 0
0 0 0 0 0 0 0 0 0 0 0 0 0 0 0 0 0 0 0 3 3 0 0 0 0 0 0 0 0 0 0 0 0 0 0 0 0 0 0 0 0 0 0 0
0 0 0 0 0 0 0 0 0 0 0 0 0 0 0 0 0 0 0 3 3 3 0 0 0 0 0 0 0 0 0 0 0 0 0 0 0 0 0 0 0 0 0 0
0 0 0 0 0 0 0 0 0 0 0 0 0 0 0 0 0 0 0 0 0 3 3 0 0 0 0 0 0 0 0 0 0 0 0 0 0 0 0 0 0 0 0 0
0 0 0 0 0 0 0 0 0 0 0 0 0 0 0 0 0 0 0 0 0 0 0 0 0 0 0 0 0 0 0 0 0 0 0 0 0 0 0 0 0 0 0 0
0 0 0 0 0 0 0 0 0 0 0 0 0 0 0 0 0 0 0 0 0 0 0 0 0 0 0 0 0 0 0 0 0 0 0 0 0 0 0 0 0 0 0 0
0 0 0 0 0 0 0 0 0 0 0 0 0 0 0 0 0 0 0 0 0 3 0 0 0 0 0 0 0 0 0 0 0 0 0 0 0 0 0 0 0 0 0 0
0 0 0 0 0 0 0 0 0 0 0 0 0 0 0 0 0 0 0 0 0 0 0 0 0 0 0 0 0 0 0 0 0 0 0 0 0 0 0 0 0 0 0 0
0 0 0 0 0 0 0 0 0 0 0 0 0 0 0 0 0 0 0 0 0 0 0 0 0 0 0 0 0 0 0 0 0 0 0 0 0 0 0 0 0 0 0 0
0 0 0 0 0 0 0 0 0 0 0 0 0 0 0 0 0 0 0 0 0 0 0 0 0 0 0 0 0 0 0 0 0 0 0 0 0 0 0 0 0 0 0 0
0 0 0 0 0 0 0 0 0 0 0 0 0 0 0 0 0 0 0 0 0 0 0 0 0 0 0 0 0 0 0 0 0 0 0 0 0 0 0 0 0 0 0 0
0 0 0 0 0 0 0 0 0 0 0 0 0 0 0 0 0 0 0 0 0 0 0 0 0 0 0 0 0 0 0 0 0 0 0 0 0 0 0 0 0 0 0 0
0 0 0 0 0 0 0 0 0 0 0 0 0 0 0 0 0 0 0 0 0 0 0 0 0 0 0 0 0 0 0 0 0 0 0 0 0 0 0 0 0 0 0 0
0 0 0 0 0 0 0 0 0 0 0 0 0 0 0 0 0 0 0 0 0 0 0 0 0 0 0 0 0 0 0 0 0 0 0 0 0 0 0 0 0 0 0 0
0 0 0 0 0 0 0 0 0 0 0 0 0 0 0 0 0 0 0 0 0 0 0 0 0 0 0 0 0 0 0 0 0 0 0 0 0 0 0 0 0 0 0 0
0 0 0 0 0 0 0 0 0 0 0 0 0 0 0 0 0 0 0 0 0 0 0 0 0 0 0 0 0 0 0 0 0 0 0 0 0 0 0 0 0 0 0 0
0 0 0 0 0 0 0 0 0 0 0 0 0 0 0 0 0 0 0 0 0 0 0 0 0 0 0 0 0 0 0 0 0 0 0 0 0 0 0 0 0 0 0 0
Height
5822 5820 5817 5815 5814 5811 5809 5806 5803 5802 5799 5797 5795 5793 5790 5787 5784 5782 5778 5775 5772 5769 5766 5763 5761 5758 5756 5754 5751 5748 5745 5742 5740 5738 5735 5733 5731 5729 5727 5725 5724 5723 5722 5720
5815 5814 5810 5808 5807 5804 5801 5799 5796 5795 5793 5791 5788 5787 5784 5782 5779 5776 5774 5771 5767 5764 5761 5759 5757 5754 5752 5750 5747 5744 5741 5738 5736 5733 5730 5728 5725 5724 5722 5720 5718 5717 5716 5715
5806 5805 5802 5801 5801 5797 5794 5791 5790 5787 5787 5784 5782 5780 5778 5776 5773 5771 5768 5765 5762 5760 5757 5755 5753 5751 5748 5746 5742 5740 5737 5734 5731 5728 5726 5723 5721 5719 5717 5715 5714 5712 5711 5710
5796 5796 5794 5797 5793 5790 5787 5785 5783 5781 5779 5778 5776 5774 5772 5770 5768 5765 5763 5761 5758 5755 5753 5751 5749 5747 5745 5742 5739 5736 5734 5731 5727 5724 5722 5720 5718 5716 5714 5712 5711 5709 5708 5706
5789 5786 5786 5787 5785 5782 5779 5778 5777 5775 5773 5771 5770 5769 5767 5765 5762 5760 5758 5756 5754 5752 5749 5747 5745 5743 5741 5738 5736 5733 5731 5728 5725 5722 5720 5717 5715 5713 5711 5710 5707 5706 5705 5703
5781 5778 5778 5780 5778 5775 5774 5772 5771 5768 5766 5766 5765 5764 5763 5760 5758 5756 5754 5752 5750 5748 5746 5744 5742 5740 5738 5735 5733 5730 5728 5726 5723 5720 5718 5715 5712 5710 5709 5708 5706 5704 5702 5700
5773 5771 5770 5771 5770 5769 5767 5766 5764 5762 5761 5759 5758 5757 5757 5755 5753 5751 5749 5748 5746 5744 5742 5740 5738 5737 5734 5732 5730 5728 5725 5723 5721 5718 5716 5714 5711 5709 5707 5706 5704 5702 5700 5698
5764 5763 5765 5764 5762 5761 5759 5757 5756 5755 5754 5753 5752 5751 5751 5750 5748 5746 5745 5744 5742 5740 5739 5737 5735 5733 5731 5730 5728 5725 5723 5721 5719 5717 5715 5713 5711 5709 5706 5704 5702 5700 5698 5696
5756 5757 5756 5755 5753 5752 5751 5750 5749 5748 5748 5747 5747 5746 5746 5745 5743 5742 5741 5740 5738 5737 5736 5734 5733 5731 5729 5728 5726 5724 5721 5719 5717 5715 5714 5712 5710 5708 5706 5704 5702 5699 5697 5695
5747 5747 5747 5747 5746 5745 5743 5742 5742 5742 5742 5742 5742 5742 5741 5740 5739 5738 5736 5736 5735 5734 5733 5732 5730 5729 5727 5726 5724 5722 5720 5719 5717 5715 5713 5711 5709 5708 5706 5703 5701 5699 5696 5693
5739 5739 5739 5739 5738 5737 5737 5736 5735 5735 5736 5737 5737 5737 5736 5736 5735 5734 5733 5732 5732 5731 5730 5729 5727 5726 5726 5724 5723 5721 5720 5718 5716 5714 5712 5711 5709 5707 5705 5703 5700 5698 5696 5693
5731 5731 5730 5732 5731 5730 5730 5730 5730 5730 5731 5732 5732 5732 5732 5731 5731 5731 5730 5730 5729 5729 5728 5727 5726 5725 5724 5723 5722 5720 5719 5717 5716 5714 5712 5711 5709 5707 5705 5702 5700 5698 5695 5692
5723 5723 5723 5724 5725 5724 5724 5724 5725 5726 5726 5727 5728 5728 5728 5728 5728 5728 5727 5727 5727 5727 5726 5725 5724 5723 5723 5722 5721 5719 5718 5717 5715 5714 5712 5710 5708 5707 5705 5703 5700 5697 5695 5692
5716 5716 5717 5718 5719 5719 5719 5719 5720 5721 5722 5723 5724 5724 5725 5725 5725 5725 5725 5725 5725 5725 5724 5724 5723 5722 5721 5720 5719 5718 5717 5716 5715 5713 5712 5710 5708 5706 5704 5702 5700 5697 5694 5691
5710 5710 5711 5712 5713 5714 5715 5715 5716 5718 5718 5719 5720 5721 5722 5722 5722 5723 5723 5723 5723 5723 5723 5722 5722 5721 5720 5719 5719 5718 5716 5715 5714 5712 5711 5709 5707 5705 5703 5701 5699 5696 5694 5691
5704 5705 5706 5707 5709 5710 5711 5712 5713 5714 5715 5716 5718 5718 5719 5720 5720 5721 5721 5721 5722 5722 5721 5721 5721 5720 5719 5719 5718 5717 5716 5714 5713 5712 5710 5708 5706 5704 5702 5700 5698 5695 5693 5690
5698 5700 5701 5703 5705 5707 5708 5709 5710 5711 5712 5714 5715 5716 5717 5718 5718 5719 5720 5720 5720 5720 5720 5720 5719 5719 5718 5718 5717 5716 5715 5714 5712 5711 5709 5707 5705 5703 5701 5699 5697 5694 5691 5688
5693 5695 5697 5699 5701 5703 5705 5706 5707 5708 5710 5711 5713 5714 5715 5716 5717 5718 5718 5718 5718 5718 5718 5719 5718 5718 5717 5717 5716 5715 5714 5713 5711 5710 5708 5706 5704 5702 5700 5697 5695 5693 5690 5687
5689 5692 5694 5696 5698 5700 5702 5704 5705 5706 5708 5709 5711 5712 5713 5714 5715 5716 5717 5716 5717 5717 5717 5717 5717 5717 5716 5716 5715 5714 5713 5712 5711 5709 5707 5705 5703 5701 5698 5696 5693 5691 5688 5685
5686 5688 5691 5693 5695 5697 5699 5701 5703 5705 5706 5708 5709 5711 5712 5713 5714 5715 5715 5715 5716 5716 5716 5716 5716 5716 5716 5715 5714 5714 5712 5711 5709 5708 5706 5704 5702 5699 5697 5695 5692 5689 5686 5683
5683 5686 5688 5690 5692 5694 5696 5699 5701 5703 5705 5706 5708 5710 5711 5712 5713 5713 5714 5715 5715 5715 5716 5716 5716 5716 5715 5714 5713 5712 5711 5710 5708 5706 5704 5702 5700 5698 5696 5693 5690 5687 5684 5681
5681 5683 5685 5688 5690 5692 5694 5696 5698 5700 5703 5705 5707 5708 5710 5711 5711 5712 5713 5714 5714 5714 5715 5715 5715 5715 5714 5713 5712 5711 5710 5708 5707 5705 5703 5701 5699 5697 5694 5692 5689 5685 5682 5679
5677 5680 5682 5685 5687 5689 5692 5694 5697 5699 5702 5704 5706 5707 5708 5709 5710 5711 5712 5713 5713 5714 5714 5714 5714 5714 5714 5713 5712 5710 5709 5707 5706 5704 5702 5700 5698 5695 5692 5690 5686 5683 5680 5676
5674 5677 5679 5682 5684 5687 5690 5693 5695 5698 5700 5703 5704 5706 5707 5708 5709 5710 5711 5712 5712 5713 5714 5714 5714 5714 5713 5712 5711 5710 5708 5707 5705 5703 5701 5699 5696 5693 5690 5687 5684 5680 5677 5674
5672 5675 5677 5680 5682 5685 5688 5691 5694 5697 5699 5702 5704 5705 5706 5708 5709 5710 5711 5711 5712 5713 5713 5714 5714 5713 5713 5712 5711 5709 5708 5706 5704 5702 5700 5697 5695 5692 5688 5685 5681 5677 5674 5670
5669 5672 5676 5678 5681 5684 5687 5690 5693 5696 5699 5701 5703 5705 5706 5708 5709 5710 5710 5711 5711 5712 5713 5713 5713 5713 5712 5711 5710 5708 5707 5705 5703 5701 5698 5695 5692 5689 5686 5682 5678 5674 5670 5667
5667 5670 5673 5677 5680 5683 5686 5689 5692 5695 5698 5700 5702 5704 5706 5707 5708 5709 5710 5710 5711 5712 5712 5713 5713 5712 5711 5710 5709 5707 5706 5704 5702 5699 5697 5693 5690 5687 5683 5680 5676 5672 5668 5664
Wind_Speed
28 27 27 26 25 26 26 27 28 27 27 27 26 26 26 26 26 26 25 23 22 21 20 20 20 19 20 19 18 18 18 19 20 18 17 17 18 18 18 18 18 18 18 18
28 27 27 26 25 26 26 26 27 25 25 25 25 24 24 25 25 24 23 22 20 19 18 18 17 17 18 18 17 18 18 19 19 18 17 17 17 17 17 16 16 16 17 17
29 28 28 27 25 25 25 25 24 24 23 23 24 23 23 23 24 23 21 21 19 17 16 16 16 16 17 17 17 17 18 18 18 17 16 15 15 15 14 13 14 14 14 14
30 29 29 27 24 24 24 23 23 22 22 22 22 21 22 23 23 21 20 19 17 16 16 16 15 16 16 17 16 16 17 17 16 15 13 13 13 13 12 12 13 12 13 14
30 30 29 26 23 23 24 23 23 23 22 21 21 21 21 21 21 20 18 17 16 15 15 15 15 15 16 16 15 15 15 15 14 13 12 12 12 11 10 10 11 11 12 13
29 29 27 25 24 24 25 24 23 22 22 21 20 20 20 19 18 17 16 15 15 14 14 14 13 13 14 14 13 13 13 13 13 12 11 11 10 9 9 9 10 11 12 13
28 28 26 25 24 25 25 24 22 21 20 18 18 18 17 16 16 15 14 14 14 13 13 12 12 13 12 12 12 12 11 12 11 11 11 10 10 9 9 9 10 11 12 12
27 27 26 24 24 24 24 23 21 20 19 17 16 16 15 15 15 14 13 13 13 12 12 11 11 11 11 11 12 12 11 11 10 9 10 10 10 10 10 10 10 10 10 11
28 27 26 24 23 22 22 22 20 19 18 15 15 14 14 13 13 13 13 12 12 12 11 10 10 10 10 10 11 10 9 9 9 9 9 9 9 9 9 9 9 10 10 11
28 26 25 24 23 22 22 22 21 19 17 14 13 13 13 12 12 12 11 10 10 10 9 9 9 9 8 9 9 8 8 8 9 9 8 9 9 9 9 9 10 10 11 12
26 24 23 22 22 21 20 19 18 17 15 12 11 11 10 10 10 9 8 8 8 8 8 8 7 7 6 7 7 8 7 7 8 9 9 9 9 9 9 10 10 10 11 12
25 24 23 21 19 18 17 17 17 16 13 11 11 10 9 8 8 7 6 5 6 7 7 6 5 5 5 6 6 7 7 8 8 8 8 8 8 9 9 10 10 11 12 12
24 23 22 19 17 16 15 15 14 13 12 11 10 9 8 7 6 5 4 4 5 5 5 5 5 5 5 6 6 6 7 7 8 8 7 8 9 9 10 10 11 12 12 12
22 21 20 18 16 13 11 12 12 11 9 9 8 8 7 6 5 4 3 3 4 4 4 4 4 5 4 5 5 6 6 7 7 8 8 8 9 9 10 10 11 12 13 13
20 19 17 15 13 10 9 9 10 9 7 8 7 7 7 5 4 4 4 3 3 3 3 3 4 4 4 4 5 6 6 6 7 8 8 8 8 9 10 11 11 12 13 13
18 15 15 14 12 9 8 8 8 8 7 6 7 7 6 5 4 4 3 2 2 2 2 2 3 3 4 5 5 6 6 6 7 7 8 9 9 10 11 11 12 12 13 13
16 14 13 12 10 9 8 9 9 8 7 7 7 7 6 5 4 3 3 3 2 1 1 2 2 3 4 4 5 6 6 7 7 8 9 9 10 11 11 12 12 13 13 14
14 13 13 12 11 9 8 8 8 8 7 7 7 6 6 5 4 4 4 3 2 1 1 1 1 2 3 3 5 5 6 7 8 9 9 9 10 11 11 12 13 14 14 14
15 14 13 12 11 10 8 8 8 8 8 8 6 5 5 5 5 4 4 3 2 1 1 0 1 2 2 4 5 6 7 8 8 9 10 10 11 11 11 11 13 15 15 15
15 14 13 12 11 10 10 10 10 9 8 9 7 5 5 4 4 4 4 3 2 1 1 1 1 2 3 4 5 6 7 8 9 9 10 10 11 12 12 12 14 15 15 16
15 14 12 11 10 10 11 11 11 10 10 9 8 6 6 5 4 4 4 3 2 1 1 2 2 3 4 5 6 7 8 8 9 10 10 11 11 12 13 13 15 16 16 17
14 14 12 11 11 11 11 11 11 11 10 9 8 7 6 5 4 4 4 3 2 2 1 1 3 4 5 5 6 7 8 8 9 10 11 11 12 13 14 14 15 17 17 18
15 13 12 11 12 12 12 12 12 12 11 9 8 7 6 6 5 5 4 3 2 2 1 1 3 4 5 6 7 7 8 8 9 10 11 12 13 14 15 15 16 17 18 18
14 13 12 12 13 13 13 13 13 12 11 9 8 7 7 6 6 4 3 3 2 1 0 1 3 3 4 6 7 8 9 9 10 11 12 12 13 14 16 17 17 18 19 20
15 13 13 13 14 15 15 14 14 12 11 10 9 8 8 7 6 5 3 3 2 1 1 1 2 3 4 6 7 8 9 10 11 12 13 13 14 15 17 18 19 20 21 22
15 15 15 15 15 16 16 15 14 13 12 11 10 9 8 7 6 4 4 3 1 2 1 1 2 3 4 6 7 8 9 10 12 13 14 15 16 17 18 20 20 21 21 22
17 17 17 17 16 16 17 16 15 14 13 12 10 9 8 7 5 4 3 2 1 1 0 1 2 4 5 7 8 8 10 11 12 14 15 16 17 18 19 20 21 21 22 23
Wind_Direction
294 295 297 297 295 292 291 292 293 296 297 300 301 302 304 306 308 309 310 310 309 307 306 305 306 308 310 310 308 309 310 308 305 302 297 293 291 290 287 285 282 280 282 283
291 292 292 294 294 294 294 292 292 294 295 297 298 301 304 305 305 306 307 310 312 310 305 305 307 310 312 313 312 312 312 311 309 305 300 298 295 294 291 288 285 284 285 286
291 290 290 293 295 294 295 295 294 294 294 295 299 302 303 303 303 304 308 310 312 310 307 307 307 311 313 314 316 316 314 316 316 311 306 304 302 301 299 296 298 297 296 294
292 292 291 298 295 294 297 299 295 293 294 295 298 300 302 303 304 305 306 309 309 307 303 304 305 310 313 316 317 315 316 319 321 319 314 312 311 309 307 305 303 302 302 300
290 292 293 296 296 295 296 296 295 293 293 294 295 296 301 302 303 304 303 305 305 303 302 306 307 305 308 313 314 315 318 320 323 326 324 324 320 315 315 316 313 310 307 305
288 289 291 294 295 295 296 296 296 293 292 293 293 293 297 300 302 303 304 305 305 304 305 307 308 308 311 313 316 318 319 321 324 331 331 332 329 324 321 320 319 317 316 315
284 283 286 291 293 294 293 294 293 292 292 291 290 295 298 300 301 304 305 305 305 305 307 310 312 312 313 317 319 320 322 326 329 332 334 337 341 337 331 327 325 322 320 321
283 282 285 288 290 292 291 289 289 289 288 288 288 292 296 298 299 300 300 300 301 303 306 310 313 314 316 320 324 324 324 326 330 334 340 341 343 345 344 340 337 333 332 332
281 281 283 285 287 289 286 284 284 286 288 285 287 289 291 293 298 299 298 298 298 300 304 308 312 316 322 326 330 333 335 338 339 341 343 342 344 345 346 347 347 344 341 340
280 280 279 279 281 282 280 279 280 283 282 282 284 286 289 294 300 298 296 297 299 300 303 306 309 316 324 330 338 343 346 348 347 345 348 348 347 348 349 349 347 345 345 344
280 280 278 277 277 275 272 275 277 277 278 283 285 288 291 294 294 293 292 293 300 302 306 309 313 315 321 329 338 342 345 347 350 348 351 350 350 353 354 354 351 350 349 347
276 275 276 276 274 272 271 270 272 272 271 277 279 282 284 289 288 286 287 289 300 307 314 316 325 323 322 328 338 342 344 347 352 352 357 357 355 356 357 357 357 355 352 350
275 271 271 272 268 272 271 270 268 269 271 270 271 275 277 283 286 284 282 289 297 307 317 321 327 325 326 332 339 346 349 348 350 351 356 357 357 358 357 354 353 353 353 352
267 265 264 263 266 268 265 263 261 264 265 261 261 266 266 269 270 276 276 285 293 301 315 323 328 326 330 342 345 345 346 346 345 348 350 351 352 352 349 346 346 349 351 351
262 260 258 255 255 251 252 254 255 254 251 249 249 250 253 251 249 256 259 269 289 295 302 318 331 333 330 342 346 345 342 343 346 347 344 342 345 347 345 343 344 345 345 345
256 251 248 246 246 238 238 246 244 239 242 241 229 231 231 232 237 245 249 264 274 273 289 309 325 339 339 343 347 347 342 343 344 345 342 339 342 343 342 342 343 343 344 343
248 242 242 242 237 226 231 235 233 231 231 225 216 214 214 225 230 235 243 240 234 229 291 309 323 334 336 344 347 349 347 349 347 344 342 341 339 337 337 338 339 340 342 342
244 235 232 231 226 222 229 225 223 220 216 212 209 212 210 220 231 238 242 238 226 221 249 284 329 337 336 343 347 345 343 344 344 343 343 342 341 339 338 339 340 339 338 338
235 230 225 221 221 218 220 219 212 205 200 193 194 198 201 216 228 230 226 221 203 182 187 71 15 5 358 357 352 345 341 339 337 340 344 345 344 345 344 342 342 341 340 336
227 222 218 217 216 217 218 215 205 201 199 196 193 192 193 199 208 207 200 198 192 172 89 35 11 7 358 348 340 338 341 343 343 344 345 345 346 345 345 342 342 342 342 338
225 220 214 210 214 215 212 208 202 199 202 202 197 194 193 196 198 194 193 197 202 210 61 36 27 11 358 353 350 349 349 348 347 347 347 346 346 347 345 343 345 343 340 337
221 215 210 209 212 210 205 202 200 198 199 198 197 193 193 195 193 189 191 192 196 214 251 9 22 12 8 1 357 355 355 353 351 350 350 349 347 346 346 343 340 339 337 337
218 214 211 210 207 202 198 195 195 196 197 195 191 190 196 196 187 182 183 184 193 215 277 357 17 15 13 7 3 1 360 358 355 352 351 350 345 342 341 340 339 339 339 338
214 210 207 203 199 194 190 189 190 192 191 187 184 186 187 181 171 165 171 177 179 182 86 40 30 21 14 7 5 4 2 359 356 353 350 348 345 342 341 340 339 338 337 336
205 201 196 196 196 188 181 183 185 186 183 180 179 176 173 167 161 156 159 170 174 180 148 35 30 15 8 6 4 2 0 357 353 350 347 346 345 343 342 340 337 335 335 335
198 195 193 192 191 186 182 183 184 184 181 177 171 169 170 167 163 157 156 162 180 196 190 21 16 5 1 358 355 352 352 351 348 347 346 345 343 341 341 340 339 338 337 336
191 190 190 187 185 183 184 185 183 182 181 179 174 173 175 174 171 168 164 167 187 191 193 4 358 351 352 350 347 345 345 346 347 347 347 346 344 343 342 343 342 341 339 338